This is the latest recevied weather packets stored in our database for station/object DG1GMY-10. If no packets are shown the sender has not sent any weather packets the latest 10 day(s).
| Time | Temp. | Humidity | Pressure | Rain* | Wind** | Luminosity | Snow |
|---|---|---|---|---|---|---|---|
| 1787884591 | 21.11° C | 100% | 1013.4 hPa | - | - | - | - |
| 1787880991 | 21.11° C | 100% | 1013.1 hPa | - | - | - | - |
| 1787877391 | 22.22° C | 90% | 1012.7 hPa | - | - | - | - |
| 1787873791 | 23.33° C | 78% | 1012.9 hPa | - | - | - | - |
| 1787870191 | 23.33° C | 76% | 1011 hPa | - | - | - | - |
| 1787866591 | 22.78° C | 83% | 1011 hPa | - | - | - | - |
| 1787862990 | 23.89° C | 70% | 1010.7 hPa | - | - | - | - |
| 1787859390 | 25.56° C | 57% | 1010.7 hPa | - | - | - | - |
| 1787855790 | 26.67° C | 52% | 1011 hPa | - | - | - | - |
| 1787852190 | 27.78° C | 50% | 1011.4 hPa | - | - | - | - |
| 1787848590 | 31.11° C | 51% | 1012.9 hPa | - | - | - | - |
| 1787844990 | 33.33° C | 40% | 1012.8 hPa | - | - | - | - |
| 1787841390 | 34.44° C | 37% | 1013 hPa | - | - | - | - |
| 1787837790 | 34.44° C | 36% | 1012.9 hPa | - | - | - | - |
| 1787834189 | 32.22° C | 42% | 1013.4 hPa | - | - | - | - |
| 1787830589 | 28.89° C | 51% | 1013.9 hPa | - | - | - | - |
| 1787826989 | 27.22° C | 66% | 1014.3 hPa | - | - | - | - |
| 1787823389 | 24.44° C | 81% | 1015 hPa | - | - | - | - |
| 1787819789 | 22.78° C | 93% | 1015.1 hPa | - | - | - | - |
| 1787816189 | 21.11° C | 100% | 1015 hPa | - | - | - | - |
| 1787812589 | 20° C | 100% | 1015.1 hPa | - | - | - | - |
| 1787808989 | 17.78° C | 100% | 1014.9 hPa | - | - | - | - |
| 1787805389 | 16.67° C | 100% | 1014.4 hPa | - | - | - | - |
| 1787801789 | 17.78° C | 100% | 1014.1 hPa | - | - | - | - |
| 1787798188 | 17.78° C | 100% | 1014 hPa | - | - | - | - |
* Rain since midnight (hover to see other rain measurements)
** Current wind speed in m/s (hover to see current wind gust speed)